FW6587 Weather Reports


Display with metric or nautical units.
time (UTC)temp
F
wind
direction
speed
MPH
gust
MPH
rain 1hr
in
rain 24hr
in
rain mn
in
humidity
%
barometer
mb
20260906223105 89 0 0.0 5.0 0.00 0.00 0.00 34 1025.1
20260906221604 91 314 0.0 6.0 0.00 0.00 0.00 32 1025.5
20260906220100 90 0 0.0 4.0 0.00 0.00 0.00 33 1025.7
20260906214554 90 0 1.0 7.0 0.00 0.00 0.00 32 1025.8
20260906213105 90 98 0.0 2.0 0.00 0.00 0.00 33 1026.1
20260906211605 90 142 1.0 5.0 0.00 0.00 0.00 34 1026.4
20260906210105 89 117 0.0 3.0 0.00 0.00 0.00 34 1026.6
20260906204603 88 0 0.0 7.0 0.00 0.00 0.00 33 1026.8
20260906203101 88 90 0.0 7.0 0.00 0.00 0.00 32 1027.0
20260906201604 90 131 1.0 6.0 0.00 0.00 0.00 30 1027.2
20260906200119 88 66 3.0 9.0 0.00 0.00 0.00 31 1027.3
20260906194557 88 136 0.0 4.0 0.00 0.00 0.00 34 1027.3
20260906193055 88 339 0.0 6.0 0.00 0.00 0.00 32 1027.6
20260906191553 87 134 1.0 7.0 0.00 0.00 0.00 32 1027.9
20260906190143 85 97 0.0 4.0 0.00 0.00 0.00 36 1028.0
20260906184558 85 0 0.0 8.0 0.00 0.00 0.00 36 1028.3
20260906183101 84 325 2.0 7.0 0.00 0.00 0.00 38 1028.7
20260906181609 84 146 1.0 7.0 0.00 0.00 0.00 40 1029.0
20260906180114 82 119 1.0 3.0 0.00 0.00 0.00 43 1029.3
20260906174607 81 98 0.0 4.0 0.00 0.00 0.00 43 1029.5
20260906173120 79 0 0.0 3.0 0.00 0.00 0.00 45 1029.9
20260906171603 79 55 1.0 4.0 0.00 0.00 0.00 46 1030.1
20260906170106 78 114 0.0 6.0 0.00 0.00 0.00 49 1030.3
20260906164555 76 0 0.0 3.0 0.00 0.00 0.00 49 1030.4
20260906163101 76 262 0.0 2.0 0.00 0.00 0.00 53 1030.4
20260906161602 75 0 0.0 2.0 0.00 0.00 0.00 55 1030.4
20260906160100 75 0 0.0 3.0 0.00 0.00 0.00 55 1030.4
20260906154554 74 0 0.0 1.0 0.00 0.00 0.00 58 1030.4
20260906153104 72 0 0.0 0.0 0.00 0.00 0.00 63 1030.2
20260906151603 71 0 0.0 0.0 0.00 0.00 0.00 65 1030.4
20260906150059 70 0 0.0 0.0 0.00 0.00 0.00 67 1030.6
20260906144553 69 0 0.0 0.0 0.00 0.00 0.00 69 1030.6
20260906143109 67 0 0.0 0.0 0.00 0.00 0.00 71 1030.7
20260906141600 65 0 0.0 0.0 0.00 0.00 0.00 76 1030.7
20260906140057 63 0 0.0 0.0 0.00 0.00 0.00 77 1030.7
20260906134552 62 0 0.0 0.0 0.00 0.00 0.00 77 1030.7
20260906133114 61 0 0.0 0.0 0.00 0.00 0.00 76 1030.4
20260906131604 60 0 0.0 0.0 0.00 0.00 0.00 74 1030.3
20260906130117 60 0 0.0 0.0 0.00 0.00 0.00 73 1030.3
20260906124601 61 0 0.0 0.0 0.00 0.00 0.00 72 1030.2
20260906123057 61 0 0.0 0.0 0.00 0.00 0.00 72 1030.2
20260906121555 61 0 0.0 0.0 0.00 0.00 0.00 71 1030.2
20260906114559 62 0 0.0 0.0 0.00 0.00 0.00 71 1030.2
20260906113102 63 0 0.0 0.0 0.00 0.00 0.00 71 1030.1
20260906111609 63 0 0.0 0.0 0.00 0.00 0.00 71 1029.9
20260906110103 64 0 0.0 0.0 0.00 0.00 0.00 70 1029.9
20260906104602 64 0 0.0 0.0 0.00 0.00 0.00 69 1029.7
20260906103106 64 0 0.0 0.0 0.00 0.00 0.00 65 1029.7
20260906101610 64 0 0.0 0.0 0.00 0.00 0.00 60 1029.7
20260906100105 65 0 0.0 0.0 0.00 0.00 0.00 59 1029.7
20260906094608 65 0 0.0 0.0 0.00 0.00 0.00 58 1029.6
20260906093107 66 0 0.0 0.0 0.00 0.00 0.00 56 1029.8
20260906091604 67 0 0.0 0.0 0.00 0.00 0.00 55 1029.5
20260906090137 67 0 0.0 0.0 0.00 0.00 0.00 53 1029.5
20260906084627 68 0 0.0 0.0 0.00 0.00 0.00 53 1029.4
20260906083053 68 0 0.0 0.0 0.00 0.00 0.00 52 1029.3
20260906081602 69 0 0.0 0.0 0.00 0.00 0.00 51 1029.0
20260906080109 69 0 0.0 0.0 0.00 0.00 0.00 51 1029.0
20260906074601 69 0 0.0 0.0 0.00 0.00 0.00 50 1028.9
20260906073054 69 0 0.0 0.0 0.00 0.00 0.00 51 1028.9
20260906071553 70 0 0.0 0.0 0.00 0.00 0.00 52 1029.0
20260906070105 70 0 0.0 0.0 0.00 0.00 0.00 50 1028.8
20260906064556 71 0 0.0 0.0 0.00 0.00 0.00 50 1029.1
20260906063057 72 0 0.0 0.0 0.00 0.00 0.00 49 1029.2
20260906061604 72 0 0.0 0.0 0.00 0.00 0.00 49 1029.1
20260906060105 73 0 0.0 0.0 0.00 0.00 0.00 49 1029.2
20260906054603 74 0 0.0 1.0 0.00 0.00 0.00 48 1029.2
20260906053108 75 236 0.0 2.0 0.00 0.00 0.00 49 1029.3
20260906051608 75 252 3.0 8.0 0.00 0.00 0.00 44 1029.4
20260906044600 74 0 0.0 2.0 0.00 0.00 0.00 40 1029.9
20260906043104 74 0 0.0 0.0 0.00 0.00 0.00 40 1029.3
20260906041606 75 0 0.0 2.0 0.00 0.00 0.00 39 1028.8
20260906040101 75 0 0.0 1.0 0.00 0.00 0.00 38 1028.7
20260906034608 75 0 0.0 4.0 0.00 0.00 0.00 38 1028.6
20260906033053 74 0 0.0 1.0 0.00 0.00 0.00 37 1028.3
20260906031600 75 0 0.0 1.0 0.00 0.00 0.00 36 1028.2
20260906030059 75 0 0.0 1.0 0.00 0.00 0.00 37 1028.0
20260906024624 76 0 0.0 1.0 0.00 0.00 0.00 36 1027.7
20260906023101 77 0 0.0 1.0 0.00 0.00 0.00 33 1027.4
20260906021602 78 0 0.0 0.0 0.00 0.00 0.00 34 1027.3
20260906020106 80 0 0.0 0.0 0.00 0.00 0.00 34 1027.3
20260906014554 80 0 0.0 2.0 0.00 0.00 0.00 32 1027.0
20260906013053 81 0 0.0 1.0 0.00 0.00 0.00 33 1026.9
20260906011559 82 0 0.0 3.0 0.00 0.00 0.00 30 1027.1
20260906010127 84 274 0.0 4.0 0.00 0.00 0.00 28 1027.1
20260906004600 85 235 0.0 3.0 0.00 0.00 0.00 26 1027.0
20260906003054 86 0 0.0 2.0 0.00 0.00 0.00 26 1027.1
20260906001604 87 0 0.0 0.0 0.00 0.00 0.00 26 1027.0
20260906000104 89 0 0.0 1.0 0.00 0.00 0.00 23 1026.9
20260905234557 90 0 0.0 0.0 0.00 0.00 0.00 23 1026.8
20260905233053 91 0 0.0 2.0 0.00 0.00 0.00 22 1026.8
20260905231555 91 158 0.0 4.0 0.00 0.00 0.00 23 1026.8
20260905230125 92 0 1.0 7.0 0.00 0.00 0.00 20 1026.6
20260905224556 94 71 1.0 4.0 0.00 0.00 0.00 21 1026.6